Terminal Aerodrome Forecast
Issued by NWS Atlanta, GA

Home | Current Version | Previous Version | Text Only | Print | Product List | Glossary On
Versions: 1 2 3 4 5 6 7 8 9 10 11 12 13 14 15 16 17 18 19 20 21 22
000
FTUS42 KFFC 202331
TAFCSG
TAF
KCSG 202331Z 2100/2124 25010G18KT P6SM SCT060
     FM210400 28008KT P6SM SCT060
     FM210800 31009KT P6SM FEW070
     FM211500 32009G18KT P6SM FEW040
     FM212000 29007KT P6SM FEW050=

USA.gov is the U.S. government's official web portal to all federal, state and local government web resources and services.